AO-07 1 07530U 74089B 22328.51198719 -.00000047 00000-0 -48973-5 0 9990 2 07530 101.9258 309.0002 0012446 94.7590 23.4189 12.53658880197525 UO-11 1 14781U 84021B 22328.47649455 .00000781 00000-0 99873-4 0 9993 2 14781 97.6347 308.7875 0009021 146.2384 213.9407 14.83988223 63774 AO-16 1 20439U 90005D 22328.46515766 .00000082 00000-0 47030-4 0 9997 2 20439 98.8643 308.6923 0011858 83.7971 32.9007 14.32962309715583 LO-19 1 20442U 90005G 22328.47576640 .00000091 00000-0 49845-4 0 9996 2 20442 98.8171 295.9564 0012714 61.5946 298.6518 14.33115801716026 HUBBLE 1 20580U 90037B 22328.93126462 .00001910 00000-0 99877-4 0 9999 2 20580 28.4686 184.9494 0002515 334.5778 45.9314 15.11304569590779 MET-2/21 1 22782U 93055A 22328.52725457 .00000028 00000-0 11684-4 0 9991 2 22782 82.5501 247.1770 0020986 258.2695 276.0973 13.83863120476145 AO-27 1 22825U 93061C 22328.58373606 .00000074 00000-0 46528-4 0 9993 2 22825 98.8702 2.8804 0007585 309.5680 50.4831 14.30212264521311 IO-26 1 22826U 93061D 22328.70789485 .00000081 00000-0 48623-4 0 9990 2 22826 98.8647 2.8772 0007978 293.5367 66.4976 14.30562939521576 FO-29 1 24278U 96046B 22328.74031233 -.00000012 00000-0 25147-4 0 9995 2 24278 98.5139 330.3579 0349490 227.2554 129.8686 13.53124967297533 NOAA-15 1 25338U 98030A 22328.80057792 .00000139 00000-0 76380-4 0 9997 2 25338 98.6292 356.1305 0010298 184.4019 175.7073 14.26199799276124 GO-32 1 25397U 98043D 22328.44633045 .00000047 00000-0 40414-4 0 9994 2 25397 98.8398 279.4851 0001784 41.9954 318.1360 14.23789824266195 ISS 1 25544U 98067A 22328.87165101 .00010274 00000-0 18640-3 0 9992 2 25544 51.6439 260.5730 0007106 110.1373 354.1422 15.50193191370100 NO-44 1 26931U 01043C 22328.53462398 .00000103 00000-0 70805-4 0 9994 2 26931 67.0523 5.1857 0005224 267.9228 92.1275 14.30766890104309 SO-50 1 27607U 02058C 22327.99106311 .00000491 00000-0 87176-4 0 9990 2 27607 64.5533 173.5970 0081161 264.1429 95.0418 14.76427807 71929 CO-55 1 27844U 03031E 22328.44741360 .00000229 00000-0 12229-3 0 9990 2 27844 98.6797 333.7377 0009866 5.2895 354.8385 14.22545088 6623 CO-57 1 27848U 03031J 22328.46081603 .00000190 00000-0 10565-3 0 9991 2 27848 98.6839 334.2335 0010043 19.5636 340.5925 14.22089157 6402 RS-22 1 27939U 03042A 22328.63317098 .00000603 00000-0 11476-3 0 9994 2 27939 98.2139 109.5581 0013756 65.7328 294.5324 14.67629050 24539 NOAA-18 1 28654U 05018A 22328.75985576 .00000199 00000-0 13091-3 0 9994 2 28654 98.9340 38.9463 0013541 235.9404 124.0483 14.12811611902700 CO-58 1 28895U 05043F 22328.32942284 .00000802 00000-0 15948-3 0 9995 2 28895 98.1283 97.4795 0016407 2.2772 357.8502 14.64676824910811 Falconsat-3 1 30776U 07006E 22328.24450479 .00108576 00000-0 72464-3 0 9991 2 30776 35.4267 281.9925 0007928 230.4921 129.5117 15.73993509874562 CO-65 1 32785U 08021C 22328.47618123 .00001917 00000-0 20275-3 0 9992 2 32785 97.6795 294.4956 0014197 65.8605 294.4096 14.90269693790381 AAUSAT2 1 32788U 08021F 22328.47047161 .00004014 00000-0 33517-3 0 9997 2 32788 97.5487 308.4069 0010338 309.2516 50.7789 14.99052134792395 DO-64 1 32789U 08021G 22328.31967634 .00011341 00000-0 55604-3 0 9999 2 32789 97.3264 349.1592 0011070 119.7370 240.4967 15.18229221796144 CO-66 1 32791U 08021J 22328.34613556 .00003312 00000-0 31796-3 0 9991 2 32791 97.6318 299.7057 0013479 24.9611 335.2258 14.93673369791055 RS-30 1 32953U 08025A 22328.61921388 .00000024 00000-0 10000-3 0 9992 2 32953 82.5021 84.3273 0018627 269.9805 89.9139 12.43115565658238 PRISM 1 33493U 09002B 22328.78710600 .00004471 00000-0 34952-3 0 9991 2 33493 98.2509 324.8268 0017213 18.4984 341.6861 15.01537365753031 NOAA-19 1 33591U 09005A 22328.85036700 .00000147 00000-0 10426-3 0 9999 2 33591 99.1300 6.2248 0014833 97.5399 262.7457 14.12642066711091 SRMSAT 1 37841U 11058D 22328.48185311 .00000393 00000-0 70780-4 0 9997 2 37841 19.9737 7.5784 0011698 303.2410 195.2311 14.10796277573865 HRBE 1 37855U 11061F 22328.51530234 .00010536 00000-0 42809-3 0 9998 2 37855 101.7151 172.9679 0144028 301.7191 57.0055 15.15886121605920 RS-40 1 38735U 12041C 22328.80380495 .00000034 00000-0 17773-3 0 9993 2 38735 82.4757 165.5361 0017824 22.9599 337.2275 12.42589137468432 ZACUBE-1 1 39417U 13066B 22328.38482127 .00001620 00000-0 20033-3 0 9992 2 39417 97.6585 292.8979 0055382 239.5291 120.0447 14.83043752486829 Delfi-N3xt 1 39428U 13066N 22328.74248463 .00001577 00000-0 24445-3 0 9999 2 39428 97.8240 256.3372 0116702 124.5033 236.7260 14.70024680482250 GOMX-1 1 39430U 13066Q 22328.71486960 .00001378 00000-0 25241-3 0 9999 2 39430 97.7963 226.6782 0146700 259.4341 99.0303 14.60660567479680 LO-74 1 39440U 13066AA 22328.44426049 .00002114 00000-0 28853-3 0 9993 2 39440 97.7475 279.4857 0077283 333.6032 26.1250 14.77624587483901 AO-73 1 39444U 13066AE 22328.48090120 .00001881 00000-0 22506-3 0 9997 2 39444 97.6458 295.4259 0054183 225.9191 133.7557 14.84276957485259 SPROUT 1 39770U 14029E 22328.88143263 .00007202 00000-0 69141-3 0 9999 2 39770 97.9555 87.1838 0007711 274.6421 85.3935 14.93365980461580 DTUSAT-2 1 40030U 14033W 22328.31191890 .00002326 00000-0 24251-3 0 9997 2 40030 97.9493 261.8583 0009743 245.2867 114.7337 14.90751225457457 EO-80 1 40032U 14033Y 22328.75671768 .00002043 00000-0 21380-3 0 9990 2 40032 97.9497 262.3217 0009767 244.7754 115.2451 14.90732082458014 HODOYOSHI-1 1 40299U 14070B 22328.88812869 .00005171 00000-0 18760-3 0 9992 2 40299 97.2262 32.2899 0010135 290.5503 180.6097 15.28716373447550 FIREBIRD FU3 1 40377U 15003B 22328.28009626 .00018484 00000-0 46092-3 0 9999 2 40377 99.0785 229.3728 0085589 200.2315 159.5526 15.36520816432900 FIREBIRD FU4 1 40378U 15003C 22328.29502687 .00017946 00000-0 44637-3 0 9991 2 40378 99.0795 229.6437 0085486 199.6696 160.1240 15.36613099432908 GRIFEX 1 40379U 15003D 22328.57388209 .00012769 00000-0 41015-3 0 9990 2 40379 99.0873 213.8656 0105091 248.7088 110.2900 15.27201514432038 XW-2A 1 40903U 15049E 22328.74595167 .00034163 00000-0 38244-3 0 9997 2 40903 97.1571 28.1474 0006443 234.0833 274.4714 15.62619536404207 XW-2C 1 40906U 15049H 22328.78450292 .00005336 00000-0 24356-3 0 9992 2 40906 97.4956 331.1360 0013752 151.8007 330.5542 15.20955952397271 XW-2D 1 40907U 15049J 22328.72585191 .00006302 00000-0 27931-3 0 9990 2 40907 97.4952 331.2213 0013234 146.3089 331.4305 15.21893497397329 LILACSAT-2 1 40908U 15049K 22328.72995081 .00003024 00000-0 15679-3 0 9998 2 40908 97.5222 327.8850 0014864 173.9220 300.9164 15.16848947396778 XW-2E 1 40909U 15049L 22328.78857391 .00010240 00000-0 38891-3 0 9995 2 40909 97.4636 336.2452 0012614 123.1179 49.7794 15.26938555397842 XW-2F 1 40910U 15049M 22328.75132970 .00010093 00000-0 38962-3 0 9998 2 40910 97.4719 335.3838 0013816 125.7525 288.8803 15.26387012397609 XW-2B 1 40911U 15049N 22328.75224507 .00006069 00000-0 27022-3 0 9990 2 40911 97.4936 331.7894 0013173 147.4895 266.8543 15.21755743397219 DCBB 1 40912U 15049P 22328.74702701 .00012054 00000-0 41635-3 0 9994 2 40912 97.4329 339.7360 0014079 93.1407 24.5919 15.29995128398223 TW-1A 1 40928U 15051D 22328.75577186 .00181157 00000-0 72484-3 0 9999 2 40928 97.0134 351.8638 0006893 121.9573 358.5166 15.86040857403361 IO-86 1 40931U 15052B 22328.90577156 .00000991 00000-0 48387-4 0 9990 2 40931 5.9964 104.4070 0013608 284.4511 75.4262 14.76926729387109 AO-85 1 40967U 15058D 22328.43588320 .00000969 00000-0 12205-3 0 5426 2 40967 64.7752 304.9187 0173487 146.9043 214.3042 14.78172167 84303 ATHENOXAT-1 1 41168U 15077C 22328.39824171 .00018817 00000-0 66881-3 0 9999 2 41168 14.9902 341.0370 0007974 336.8180 60.5217 15.26375446384730 ChubuSat-2 1 41338U 16012B 22328.59416148 .00002103 00000-0 14975-3 0 9999 2 41338 31.0030 83.7894 0013022 302.9282 57.0101 15.02067248371573 ChubuSat-3 1 41339U 16012C 22328.71400399 .00002006 00000-0 14248-3 0 9990 2 41339 31.0101 79.9412 0013059 312.7228 47.2284 15.02090204371598 Horyu-4 1 41340U 16012D 22328.60423186 .00003393 00000-0 23016-3 0 9992 2 41340 31.0054 55.5766 0012615 356.8342 3.2213 15.04493288371856 e-st@r-II 1 41459U 16025D 22328.75657690 .00011427 00000-0 44664-3 0 9991 2 41459 98.1917 146.3745 0135031 83.9699 277.6835 15.17905883361776 AAUSAT4 1 41460U 16025E 22328.28446881 .00019308 00000-0 61773-3 0 9995 2 41460 98.1795 153.7799 0108945 55.3882 118.2412 15.26788215362257 LO-87 1 41557U 16033B 22328.90403438 .00016888 00000-0 42959-3 0 9996 2 41557 97.3907 67.3596 0010391 157.9119 340.6363 15.39616639362029 NuSat2 1 41558U 16033C 22328.73586936 .00016103 00000-0 38555-3 0 9990 2 41558 97.4147 73.8239 0009944 147.1870 353.5774 15.41473086362298 Lapan A3 1 41603U 16040E 22328.91229345 .00001312 00000-0 61755-4 0 9992 2 41603 97.1903 358.8424 0011954 323.0593 160.4207 15.21158588356428 Pratham 1 41783U 16059A 22328.69570415 .00000394 00000-0 84154-4 0 9990 2 41783 97.8950 3.6910 0033920 29.7851 330.5273 14.63513417329069 TY-1 1 41844U 16066D 22328.86999140 .00014452 00000-0 42536-3 0 9992 2 41844 97.3843 340.5729 0014140 77.2171 41.0851 15.35073918336173 CAS-2T 1 41847U 16066G 22328.43897743 .00000668 00000-0 10825-3 0 9994 2 41847 98.5327 32.8107 0363714 91.1670 273.1204 14.38917657317358 EO-88 1 42017U 17008BX 22328.17185914 .00019080 00000-0 46163-3 0 9994 2 42017 97.2496 32.3979 0004800 46.9421 313.2227 15.41156368321617 CAS-4B 1 42759U 17034B 22328.93107002 .00003211 00000-0 18944-3 0 9997 2 42759 43.0160 167.3689 0010857 230.7620 266.0222 15.13312223300651 CAS-4A 1 42761U 17034D 22328.75262175 .00003324 00000-0 19519-3 0 9997 2 42761 43.0165 167.0242 0010898 232.0242 226.5787 15.13402292300632 NIUSat 1 42766U 17036B 22328.80863701 .00007419 00000-0 26159-3 0 9999 2 42766 97.1841 1.0399 0014446 113.4412 246.8349 15.29447968301289 Aalto 1 1 42775U 17036L 22328.36217916 .00006487 00000-0 23889-3 0 9992 2 42775 97.1794 0.2009 0013493 114.9741 245.2903 15.28079164301172 URSA MAIOR 1 42776U 17036M 22328.53508533 .00007267 00000-0 26065-3 0 9996 2 42776 97.1808 1.2810 0013159 112.7012 247.5621 15.28911473301244 Max Valier Sat 1 42778U 17036P 22328.34770413 .00008242 00000-0 28531-3 0 9999 2 42778 97.1859 4.0664 0011759 113.0704 247.1779 15.30048805301328 Pegasus 1 42784U 17036V 22328.09490895 .00009707 00000-0 30753-3 0 9997 2 42784 97.1796 5.0627 0010945 112.5880 247.6521 15.32867977301433 NUDATSat 1 42787U 17036Y 22328.54460021 .00027563 00000-0 65967-3 0 9993 2 42787 97.1814 11.1055 0008790 94.5583 265.6661 15.41382802301685 SUCHAI 1 1 42788U 17036Z 22328.05870752 .00013706 00000-0 39550-3 0 9999 2 42788 97.1797 7.1825 0010154 106.2653 253.9709 15.35748988301634 SKCUBE 1 42789U 17036AA 22328.09108970 .00011387 00000-0 34309-3 0 9990 2 42789 97.1797 6.4505 0010314 107.5001 252.7371 15.34429919301519 VZLUSAT 1 1 42790U 17036AB 22328.38016358 .00021880 00000-0 53077-3 0 9994 2 42790 97.1808 10.8633 0008710 97.3112 262.9125 15.41020647301806 VENTA 1 1 42791U 17036AC 22328.07806637 .00009693 00000-0 30382-3 0 9990 2 42791 97.1804 6.1430 0010156 109.6787 250.5553 15.33218623301484 Robusta 1B 1 42792U 17036AD 22328.36809011 .00013223 00000-0 38668-3 0 9991 2 42792 97.1792 7.4367 0009811 106.0753 254.1572 15.35342078301614 D-SAT 1 42794U 17036AF 22328.79616704 .00002251 00000-0 19125-3 0 9991 2 42794 97.4556 325.8624 0119496 268.0884 90.6648 14.93488793295432 TechnoSat 1 42829U 17042E 22328.56698737 .00001156 00000-0 11809-3 0 9992 2 42829 97.4010 173.2487 0013511 185.2838 174.8242 14.92310963291969 AO-91 1 43017U 17073E 22328.46140824 .00004171 00000-0 30898-3 0 9993 2 43017 97.6541 216.0404 0245203 23.6579 337.5685 14.82663013270813 PICSAT 1 43132U 18004X 22328.75078167 .00012546 00000-0 35473-3 0 9997 2 43132 97.3591 44.6142 0007882 138.4135 221.7710 15.36437317270975 AO-92 1 43137U 18004AC 22328.16903182 .00010449 00000-0 32880-3 0 9990 2 43137 97.3551 42.1026 0007958 145.9808 214.1946 15.33100681270788 TianYi 2 1 43155U 18008A 22328.72351714 .00007174 00000-0 35688-3 0 9994 2 43155 97.3332 22.0209 0014130 310.8255 166.1416 15.17827131267562 Zhou Enlai 1 43156U 18008B 22328.76142166 .00007958 00000-0 39681-3 0 9995 2 43156 97.3377 21.9898 0011590 312.3206 187.0773 15.17740449267490 TianYi 6 1 43158U 18008D 22328.66851258 .00006722 00000-0 34963-3 0 9991 2 43158 97.3336 19.5252 0011342 314.7882 164.2193 15.16315836267361 S-Net D 1 43186U 18014G 22328.32125310 .00001400 00000-0 12158-3 0 9995 2 43186 97.6460 230.9385 0011176 117.0033 243.2332 14.98576717262854 S-Net B 1 43187U 18014H 22328.25485912 .00001420 00000-0 12326-3 0 9994 2 43187 97.6455 230.8170 0011163 117.0734 243.1629 14.98573453262845 S-Net A 1 43188U 18014J 22328.25516327 .00001427 00000-0 12379-3 0 9995 2 43188 97.6461 230.8902 0011166 117.2723 242.9638 14.98573714262846 S-Net C 1 43189U 18014K 22328.32298045 .00001463 00000-0 12686-3 0 9999 2 43189 97.6454 230.8701 0011179 117.2284 243.0079 14.98568928261405 FMN 1 1 43192U 18015A 22328.73625466 .00052285 00000-0 89862-3 0 9998 2 43192 97.5506 119.5503 0009689 182.2305 305.3667 15.50919434268164 Shaonian Xing 1 43199U 18015H 22328.73993122 .00023335 00000-0 56819-3 0 9992 2 43199 97.5320 112.7683 0011634 187.0601 292.6224 15.40868878268064 SurfSat 1 43614U 18070B 22328.51302473 .00094166 00000-0 64316-3 0 9995 2 43614 93.0009 167.2169 0009046 87.0904 273.1405 15.74486472236056 CP-7 DAVE 1 43615U 18070C 22328.55347867 .00068474 00000-0 56141-3 0 9996 2 43615 93.0011 166.8439 0009828 92.0815 268.1581 15.70216075235997 CubeBel-1 1 43666U 18083E 22328.87310477 .00010583 00000-0 40689-3 0 9996 2 43666 97.4077 355.9408 0013774 123.0872 2.0830 15.26504879225920 Changshagaoxin 1 43669U 18083H 22328.89595231 .00009029 00000-0 36736-3 0 9995 2 43669 97.4029 351.4398 0010449 119.7849 2.6752 15.24694924225727 Ten-Koh 1 43677U 18084G 22328.37088943 .00001312 00000-0 13627-3 0 9996 2 43677 97.9863 100.1376 0016880 103.7078 256.6020 14.91602471221515 PO-101 1 43678U 18084H 22328.76976565 .00000930 00000-0 96337-4 0 9991 2 43678 97.9923 104.1702 0010947 112.9707 247.2596 14.92504239221764 IRVINE 01 1 43693U 18088D 22328.16090377 .00078991 00000-0 10751-2 0 9990 2 43693 85.0232 201.4089 0003046 171.0099 189.1217 15.57275750224877 QO-100 1 43700U 18090A 22328.50092252 .00000164 00000-0 00000-0 0 9995 2 43700 0.0151 354.1275 0001051 271.5603 3.8945 1.00271240 14631 Reaktor Hello World 1 43743U 18096AA 22328.21078271 .00013794 00000-0 36056-3 0 9997 2 43743 97.3423 47.7525 0013177 200.2326 159.8399 15.38792533222483 MinXSS-2 1 43758U 18099A 22328.44935167 .00002763 00000-0 23580-3 0 9999 2 43758 97.6059 32.4493 0015734 89.7569 270.5457 14.98410626217050 AO-95 1 43770U 18099N 22328.16264116 .00001853 00000-0 16429-3 0 9994 2 43770 97.6026 30.2854 0014916 99.3020 260.9890 14.97316633216904 RANGE-B 1 43772U 18099Q 22328.47956284 .00003364 00000-0 28746-3 0 9998 2 43772 97.6169 32.6801 0015215 85.4208 274.8752 14.98232417216986 RANGE-A 1 43773U 18099R 22328.40608740 .00001689 00000-0 15264-3 0 9992 2 43773 97.5952 29.1241 0014764 87.0413 273.2499 14.96678328216916 MOVE-II 1 43780U 18099Y 22328.69287695 .00003120 00000-0 26029-3 0 9996 2 43780 97.6077 32.3822 0013003 89.4649 270.8064 14.99229390217057 SNUSat 2 1 43782U 18099AA 22328.46205887 .00002923 00000-0 25573-3 0 9999 2 43782 97.6034 31.0771 0013981 86.1183 274.1637 14.97423900216977 SnugLite 1 43784U 18099AC 22328.40629928 .00002650 00000-0 23032-3 0 9996 2 43784 97.6005 30.6467 0016302 91.6476 268.6614 14.97732376216995 ITASat 1 1 43786U 18099AE 22328.41301752 .00001819 00000-0 16122-3 0 9999 2 43786 97.6069 31.5255 0016330 91.3134 268.9959 14.97353383216982 EAGLET 1 1 43790U 18099AJ 22328.42959235 .00001074 00000-0 97208-4 0 9998 2 43790 97.6049 32.0853 0014152 94.0772 266.2068 14.97377637216725 ESEO 1 43792U 18099AL 22328.43572099 .00000726 00000-0 68626-4 0 9995 2 43792 97.5997 31.0502 0014335 93.0419 267.2443 14.96570991216756 CSIM 1 43793U 18099AM 22328.79513678 .00003758 00000-0 30724-3 0 9998 2 43793 97.6075 33.5452 0015430 89.0559 271.2433 14.99863863216900 Astrocast 0.1 1 43798U 18099AS 22328.43118507 .00002737 00000-0 23122-3 0 9996 2 43798 97.6067 32.8490 0012459 70.3646 289.8921 14.98849641217060 JO-97 1 43803U 18099AX 22328.16859540 .00002259 00000-0 19554-3 0 9995 2 43803 97.6015 31.1059 0015203 91.3363 268.9601 14.98040847216975 Suomi 100 1 43804U 18099AY 22328.46639145 .00003176 00000-0 27390-3 0 9992 2 43804 97.6020 31.2791 0016485 91.1059 269.2052 14.97895199217027 Al Farabi 2 1 43805U 18099AZ 22328.44761085 .00003164 00000-0 26711-3 0 9993 2 43805 97.6034 31.9552 0015021 91.2487 269.0440 14.98739857217057 CHOMPTT 1 43855U 18104G 22328.41162496 .00009824 00000-0 33028-3 0 9991 2 43855 85.0311 304.2910 0014826 16.8881 343.2855 15.30554603219168 ISAT 1 43879U 18111D 22328.52846821 .00002804 00000-0 23526-3 0 9991 2 43879 97.6521 231.2206 0012755 140.2511 219.9649 14.99102209211622 UWE-4 1 43880U 18111E 22328.71790545 .00002163 00000-0 18220-3 0 9998 2 43880 97.6570 232.2088 0011318 136.6313 223.5803 14.99202861211707 Sparrow 1 43881U 18111F 22328.31545254 .00002141 00000-0 17932-3 0 9995 2 43881 97.6594 232.1116 0011234 134.0028 226.2123 14.99434244213650 Lume 1 1 43908U 18111AJ 22328.41565165 .00010154 00000-0 30906-3 0 9998 2 43908 97.1675 211.3057 0015040 216.3413 143.6810 15.34080578217880 FO-99 1 43937U 19003F 22328.32697672 .00012525 00000-0 36588-3 0 9996 2 43937 97.1140 355.7479 0016564 304.8075 55.1610 15.35299339214463 MYSat 1 1 44045U 18092F 22328.43527405 .00277904 00000-0 98488-3 0 9993 2 44045 51.6194 342.0222 0011344 31.0899 329.0775 15.87626002212929 AstroCast 0.2 1 44083U 19018F 22328.61485404 .00010296 00000-0 34454-3 0 9998 2 44083 97.3014 24.6475 0007139 274.8691 85.1735 15.31131607202955 AISTechSat 3 1 44103U 19018AB 22328.38185376 .00008742 00000-0 29626-3 0 9998 2 44103 97.2881 24.5790 0009538 289.7276 70.2936 15.30751400203088 AISat 1 1 44104U 19018AC 22328.49416775 .00007600 00000-0 19626-3 0 9992 2 44104 97.3885 52.4395 0047373 279.2720 80.3169 15.38268448204176 Prox-1 1 44339U 19036A 22328.14270583 .00003171 00000-0 65606-3 0 9997 2 44339 24.0007 264.6216 0010949 166.8768 193.2010 14.56193532181645 Oculus-ASR 1 44348U 19036K 22328.57898623 .00076817 -51371-5 44877-3 0 9992 2 44348 28.4935 150.9300 0163706 336.4998 22.8193 15.60106825189354 NO-104 1 44354U 19036R 22328.79705847 .00095066 -41762-5 49317-3 0 9992 2 44354 28.5185 129.8890 0150766 6.6429 353.6137 15.64687927189573 Move-IIb 1 44398U 19038N 22328.54366688 .00014209 00000-0 59952-3 0 9991 2 44398 97.6466 299.9592 0017385 298.7319 61.2158 15.23268797187364 SONATE 1 44400U 19038Q 22327.86131320 .00005772 00000-0 29906-3 0 9993 2 44400 97.6604 297.4193 0021195 307.0298 52.8998 15.16401790187076 BeeSat 9 1 44412U 19038AC 22328.48879905 .00008675 00000-0 40506-3 0 9997 2 44412 97.6553 299.4098 0017127 306.2278 53.7373 15.19945689186975 JAISAT-1 1 44419U 19038F 22328.42507712 .00008328 00000-0 38414-3 0 9992 2 44419 97.6554 300.3046 0016013 303.3299 56.6402 15.20398393187334 Taurus 1 1 44530U 19059C 22328.59659914 .00001868 00000-0 51680-3 0 9991 2 44530 98.5514 68.7495 0012557 359.1072 1.0098 14.47816268169018 Duchifat 3 1 44854U 19089C 22328.76648553 .00004042 00000-0 30522-3 0 9998 2 44854 36.9651 229.1574 0006156 74.6328 321.5632 15.02396136162046 OPS-SAT 1 44878U 19092F 22328.47869621 .00008694 00000-0 36798-3 0 9995 2 44878 97.4767 151.4041 0012303 137.1183 223.1015 15.23356749162527 TO-108 1 44881U 19093C 22328.81749163 .00000517 00000-0 71820-4 0 9998 2 44881 97.8818 45.6415 0015640 29.0161 331.1916 14.81941287158528 FloripaSat 1 1 44885U 19093G 22328.81521801 .00001847 00000-0 22890-3 0 9998 2 44885 97.8878 47.4003 0014851 33.8817 326.3337 14.83819177158623 RS-44 1 44909U 19096E 22328.46395293 -.00000005 00000-0 -56197-4 0 9998 2 44909 82.5184 123.9857 0216549 305.7551 52.3581 12.79716746135973 BY70-2 1 45857U 20042B 22328.91139317 .00006815 00000-0 86068-3 0 9999 2 45857 97.9453 44.3588 0008892 317.3065 42.7406 14.82187579129201 UPMSat 2 1 46276U 20061E 22328.47325592 .00003900 00000-0 18649-3 0 9991 2 46276 97.3756 35.6215 0001483 39.8763 320.2580 15.19571091123160 AmicalSat 1 46287U 20061R 22328.41384911 .00005044 00000-0 27724-3 0 9992 2 46287 97.4297 34.3490 0003865 88.2774 271.8901 15.14528457122665 SALSAT 1 46495U 20068K 22328.41185375 .00001722 00000-0 12433-3 0 9993 2 46495 97.7461 269.9564 0017955 94.4482 265.8796 15.05339357118243 BY70-3 1 46839U 20079N 22328.79108003 .00037134 00000-0 62373-3 0 9995 2 46839 97.1822 39.4927 0005454 110.3297 342.9430 15.51674661115011 CAPE 3 1 47309U 21002A 22328.46074922 .00010190 00000-0 36630-3 0 9991 2 47309 60.6802 121.2876 0041331 75.0446 285.5214 15.28421649102879 AO-109 1 47311U 21002C 22328.41132922 .00008712 00000-0 31541-3 0 9997 2 47311 60.6833 118.8904 0038123 74.0463 286.4822 15.28477500102886 MiTEE 1 1 47314U 21002F 22328.38109874 .00022952 00000-0 61410-3 0 9996 2 47314 60.6793 106.4598 0034395 67.2842 293.1882 15.37453656103112 ExoCube 2 1 47319U 21002L 22328.45846598 .00008639 00000-0 31744-3 0 9993 2 47319 60.6813 120.1703 0039048 75.2225 285.3186 15.27965892102832 UVSQ-SAT 1 47438U 21006AB 22328.14826382 .00005140 00000-0 25673-3 0 9992 2 47438 97.4174 23.8998 0012890 82.0126 278.2570 15.17841514101480 YUSAT 1 1 47439U 21006AC 22328.12114512 .00006313 00000-0 30702-3 0 9998 2 47439 97.4182 24.1276 0012441 81.8655 278.3990 15.18690639101498 SOMP 2b 1 47445U 21006AJ 22328.38476231 .00004885 00000-0 24760-3 0 9991 2 47445 97.4148 23.6487 0012564 85.1188 275.1480 15.17354739101507 IDEASSat 1 47458U 21006AX 22328.58195914 .00005560 00000-0 28272-3 0 9996 2 47458 97.4235 24.4847 0011777 83.5996 276.6579 15.17189099101523 CubeSX-Sirius-HSE 1 47951U 21022V 22328.73696777 .00004874 00000-0 31119-3 0 9993 2 47951 97.5137 224.8652 0019755 322.4924 118.0360 15.08972991 92159 CubeSX-HSE 1 47952U 21022W 22328.78273957 .00004952 00000-0 31559-3 0 9995 2 47952 97.5144 224.9410 0019456 322.1376 108.6652 15.09032977 92169 KSU-Cubesat 1 47954U 21022Y 22328.70342582 .00004437 00000-0 28044-3 0 9993 2 47954 97.5152 225.0435 0018918 322.0656 37.9240 15.09401945 91881 GRBAlpha 1 47959U 21022AD 22328.78093226 .00004840 00000-0 30824-3 0 9991 2 47959 97.5150 224.9939 0019440 322.8676 126.1296 15.09073078 90986 Orbicraft-Zorkiy 1 47960U 21022AE 22328.73444457 .00005525 00000-0 34867-3 0 9996 2 47960 97.5166 225.1653 0019135 321.8603 122.5282 15.09349284 91678 STECCO 1 47962U 21022AG 22328.77175697 .00007922 00000-0 46223-3 0 9991 2 47962 97.5127 226.3633 0014021 317.2641 114.8278 15.12135086 91078 DO-111 1 47963U 21022AH 22328.53826845 .00021225 00000-0 98559-3 0 9995 2 47963 97.5178 228.4848 0012840 310.5976 49.4141 15.19962829 91207 MO-110 1 47964U 21022AJ 22328.29643789 .00006294 00000-0 36318-3 0 9997 2 47964 97.5152 226.2689 0016239 313.2115 46.7758 15.12591175 91029 FEES 1 48082U 21022AL 22328.26470926 .00009895 00000-0 54570-3 0 9997 2 48082 97.5163 226.3852 0012343 312.1744 47.8439 15.14110052 90732 CSS 1 48274U 21035A 22328.44754667 .00016329 00000-0 20853-3 0 9998 2 48274 41.4782 322.8814 0005660 301.5424 187.6997 15.58879664 89820 TUBIN 1 48900U 21059X 22328.80568494 .00004037 00000-0 21778-3 0 9991 2 48900 97.5740 97.1629 0008618 270.8439 248.2765 15.15304897 78186 IT-SPINS 1 49017U 21013G 22328.09396408 .00009110 00000-0 31949-3 0 9994 2 49017 51.5975 353.9434 0007384 302.4562 57.5703 15.30139669 78195 LEDSAT 1 49069U 21073D 22328.69415902 .00003950 00000-0 24425-3 0 9991 2 49069 97.5092 38.4016 0027576 104.5533 255.8758 15.10093585 70006 CUTE 1 49263U 21088D 22328.16915374 .00003247 00000-0 23531-3 0 9999 2 49263 97.5726 32.8836 0017955 238.3358 121.6117 15.04532917 63422 TeikyoSat 4 1 49396U 21102B 22328.90227919 .00001640 00000-0 13209-3 0 9992 2 49396 97.5389 21.9699 0017752 73.1597 287.1573 15.01169265 57117 Z-Sat 1 49399U 21102E 22328.89690743 .00001707 00000-0 13001-3 0 9996 2 49399 97.5177 23.1527 0023594 47.8560 312.4665 15.03174939 57185 KOSEN 1 1 49402U 21102H 22328.70638545 .00002734 00000-0 19903-3 0 9991 2 49402 97.5094 23.2116 0022549 38.6057 321.6776 15.04399979 57191 HO-113 1 50466U 21131B 22328.91478480 .00000159 00000-0 66611-4 0 9996 2 50466 98.5699 46.0028 0004939 43.8470 316.3108 14.38580873 47987 Tevel 1 50999U 22002R 22328.78326459 .00008155 00000-0 40963-3 0 9993 2 50999 97.4637 33.3564 0009760 216.3801 240.2106 15.17498417 47718 Grizu-263a 1 51025U 22002AT 22328.17307870 .00013250 00000-0 58513-3 0 9995 2 51025 97.4809 34.3847 0010701 222.2395 137.8017 15.21815524 47681 NO-116 1 51031U 22002AZ 22328.16648445 .00008761 00000-0 41585-3 0 9999 2 51031 97.4766 33.7478 0011315 223.7655 136.2683 15.19436572 47658 IRIS-A 1 51044U 22002BN 22328.13824337 .00004293 00000-0 23353-3 0 9995 2 51044 97.4648 32.1122 0007897 225.6504 134.4082 15.14965680 47570 DELFI-PQ 1 51074U 22002CU 22328.44501078 .00010130 00000-0 45521-3 0 9994 2 51074 97.4892 35.2792 0011341 254.3480 105.6505 15.21284397 47748 SO-115 1 51080U 22002DA 22328.15175521 .00007091 00000-0 33773-3 0 9997 2 51080 97.4912 34.6536 0011442 257.4590 102.5365 15.19391193 47677 SO-114 1 51081U 22002DB 22328.15178245 .00007205 00000-0 34288-3 0 9993 2 51081 97.4903 34.6196 0011697 257.0697 102.9232 15.19408292 47672 OreSat0 1 52017U 22026K 22328.48655853 .00006807 00000-0 34062-3 0 9997 2 52017 97.5077 326.5526 0028168 79.6189 280.8217 15.17384295 38437 Planetum 1 1 52738U 22057G 22328.79021552 .00005896 00000-0 32846-3 0 9993 2 52738 97.5266 81.1185 0007393 346.9406 13.1633 15.13969335 27674 Foresail-1 1 52766U 22057AL 22328.86395942 .00004452 00000-0 24277-3 0 9995 2 52766 97.5356 81.7585 0012221 323.5935 132.4939 15.14834867 27709 SNUGLITE 2 1 52899U 22065F 22327.67164158 .00000736 00000-0 16781-3 0 9994 2 52899 98.0397 113.7186 0008983 132.8810 227.3142 14.58567051 20903 CTIM 1 52950U 22074G 22328.60917284 .00013414 00000-0 50067-3 0 9994 2 52950 45.0109 47.4281 0007884 356.9666 3.1174 15.27385516 22188 GREENCUBE 1 53106U 22080B 22323.09002148 -.00000003 00000-0 00000-0 0 9997 2 53106 70.1752 32.7128 0008932 231.1104 128.8759 6.42557452 8251 AstroBioCubeSat 1 53107U 22080C 22326.45024110 -.00000003 00000-0 00000-0 0 9994 2 53107 70.1678 31.6301 0013540 223.4986 136.4603 6.42110565 8379 CELESTA 1 53111U 22080G 22310.17474584 -.00000003 00000-0 00000-0 0 9995 2 53111 70.4223 37.2580 0024959 243.8956 115.9136 6.43203861 7301 RS4S 1 53306U 98067TZ 22328.84690592 .00093194 00000-0 84283-3 0 9991 2 53306 51.6369 254.6340 0008729 122.5410 237.6430 15.67277522 19665 RS3S 1 53308U 98067TT 22328.85624684 .00088101 00000-0 81298-3 0 9998 2 53308 51.6367 254.6927 0008576 121.6154 238.5680 15.66805216 19721 RS1S 1 53309U 98067TU 22328.83864350 .00094740 00000-0 85324-3 0 9993 2 53309 51.6360 254.5691 0009009 125.3444 234.8395 15.67370261 19671 RS5S 1 53310U 98067TV 22328.85503241 .00086018 00000-0 79412-3 0 9996 2 53310 51.6365 254.6839 0008696 124.0835 236.0987 15.66802764 19706 RS6S 1 53311U 98067TW 22328.82027833 .00104929 00000-0 92142-3 0 9999 2 53311 51.6358 254.4457 0008639 120.5916 239.5934 15.67950950 19725 RS9S 1 53312U 98067TX 22328.83955014 .00090138 00000-0 82341-3 0 9998 2 53312 51.6366 254.5814 0009040 125.7181 234.4658 15.67040431 19665 RS12S 1 53313U 98067TY 22328.83611714 .00090943 00000-0 82363-3 0 9993 2 53313 51.6369 254.5594 0008626 126.6918 233.4871 15.67254219 19714 JAGSAT 1 53771U 98067UJ 22328.41286672 .00102209 00000-0 97525-3 0 9991 2 53771 51.6373 258.4855 0009676 136.2560 223.9204 15.65896950 12322 SelfieSat 1 53951U 22057BA 22328.27886317 .00006127 00000-0 33820-3 0 9993 2 53951 97.5315 80.8439 0009741 338.3496 21.7322 15.14266701 27609 /EX
